Location: Unspecified
(0.0000°N, 0.0000°E)
Time: 03:13:06
(UTC+00:00)

Envisat - Pass Details

Date: 15 November 2019
Orbit: 764 x 766 km, 98.1° (Epoch: 11 November)

Event Time Altitude Azimuth Distance (km) Brightness Sun altitude
Rises 19:31:36 0° 202° (SSW) 3,230 6.8 -25.3°
Reaches altitude 10° 19:34:57 10° 225° (SW) 2,300 6.3 -26.0°
Maximum altitude 19:37:37 14° 257° (WSW) 2,005 6.0 -26.7°
Drops below altitude 10° 19:40:17 10° 290° (WNW) 2,295 6.1 -27.3°
Sets 19:43:40 0° 314° (NW) 3,217 6.5 -28.1°
